TLM848 EGGW-LFPO

Flight info

Callsign TLM848
Flight time N/A
Altitude 22000
Route RODNI N27 ICTAM Q63 CPT/N0405F210 N859 SITET UN859 LGL/N0395F190 A34 BOBSA
Aircraft B739/M-SDE2E3FGHIRWXY/LB1

Departure

Time N/A
Airport London Luton Airport (EGGW)

Arrival

Time 2026-05-07 17:55
Airport Paris-Orly Airport (LFPO)
Time Latitude Longitude Altitude Speed Heading
2026-05-07 17:30 48.82749 0.51491 22017 ft 446 kts 167°
2026-05-07 17:30 48.79766 0.52724 22002 ft 442 kts 167°
2026-05-07 17:30 48.76796 0.53940 22019 ft 442 kts 167°
2026-05-07 17:31 48.73824 0.55134 22021 ft 443 kts 167°
2026-05-07 17:31 48.70836 0.56327 21924 ft 445 kts 167°
2026-05-07 17:31 48.67830 0.57526 21349 ft 443 kts 167°
2026-05-07 17:31 48.64864 0.58711 20610 ft 439 kts 167°
2026-05-07 17:32 48.61931 0.59883 19920 ft 433 kts 167°
2026-05-07 17:32 48.59034 0.61041 19235 ft 429 kts 167°
2026-05-07 17:32 48.56162 0.62187 18563 ft 424 kts 167°
2026-05-07 17:32 48.53318 0.63320 17824 ft 421 kts 167°
2026-05-07 17:33 48.50498 0.64442 17096 ft 417 kts 167°
2026-05-07 17:33 48.47712 0.65551 16404 ft 412 kts 167°
2026-05-07 17:33 48.44953 0.66649 15740 ft 408 kts 167°
2026-05-07 17:33 48.42219 0.67738 15074 ft 405 kts 167°
2026-05-07 17:34 48.39507 0.68817 14428 ft 401 kts 167°
2026-05-07 17:34 48.36818 0.69885 13786 ft 398 kts 167°
2026-05-07 17:34 48.34185 0.70931 13564 ft 384 kts 167°
2026-05-07 17:34 48.31646 0.71939 13363 ft 370 kts 167°
2026-05-07 17:35 48.29202 0.72907 13201 ft 357 kts 167°
2026-05-07 17:35 48.26893 0.74112 13022 ft 348 kts 152°
2026-05-07 17:35 48.25041 0.76365 13023 ft 343 kts 133°
2026-05-07 17:35 48.23747 0.79366 13028 ft 344 kts 117°
2026-05-07 17:36 48.22738 0.82633 12996 ft 346 kts 115°
2026-05-07 17:36 48.21775 0.85936 13015 ft 346 kts 115°
2026-05-07 17:36 48.20819 0.89243 13006 ft 346 kts 115°
2026-05-07 17:36 48.19853 0.92553 13010 ft 346 kts 115°
2026-05-07 17:37 48.18878 0.95858 13002 ft 346 kts 116°
2026-05-07 17:37 48.17898 0.99151 12994 ft 346 kts 116°
2026-05-07 17:37 48.16913 1.02440 13008 ft 346 kts 116°
2026-05-07 17:37 48.15924 1.05729 13004 ft 346 kts 116°
2026-05-07 17:38 48.14935 1.09008 12994 ft 346 kts 116°
2026-05-07 17:38 48.13945 1.12288 13007 ft 346 kts 116°
2026-05-07 17:38 48.12954 1.15563 12990 ft 346 kts 116°
2026-05-07 17:38 48.11961 1.18842 12991 ft 345 kts 116°
2026-05-07 17:39 48.10970 1.22111 13012 ft 345 kts 116°
2026-05-07 17:39 48.09976 1.25385 12996 ft 345 kts 116°
2026-05-07 17:39 48.08982 1.28654 13004 ft 345 kts 116°
2026-05-07 17:39 48.07995 1.31935 13000 ft 346 kts 112°
2026-05-07 17:40 48.07538 1.35454 13005 ft 348 kts 89°
2026-05-07 17:40 48.08010 1.38997 12932 ft 351 kts 67°
2026-05-07 17:40 48.09337 1.42046 12516 ft 350 kts 44°
2026-05-07 17:40 48.11241 1.44259 12192 ft 344 kts 33°
2026-05-07 17:41 48.13233 1.46215 11836 ft 341 kts 32°
2026-05-07 17:41 48.15210 1.48142 11500 ft 337 kts 32°
2026-05-07 17:41 48.17158 1.50070 11170 ft 334 kts 33°
2026-05-07 17:41 48.19077 1.51995 10849 ft 330 kts 33°
2026-05-07 17:42 48.20974 1.53912 10537 ft 327 kts 33°
2026-05-07 17:42 48.22852 1.55816 10220 ft 324 kts 33°
2026-05-07 17:42 48.24704 1.57727 9944 ft 320 kts 36°
2026-05-07 17:42 48.26431 1.59709 9954 ft 306 kts 37°
2026-05-07 17:43 48.28064 1.61666 9934 ft 294 kts 38°
2026-05-07 17:43 48.29630 1.63559 9774 ft 287 kts 38°
2026-05-07 17:43 48.31181 1.65430 9486 ft 285 kts 38°
2026-05-07 17:43 48.32725 1.67287 9214 ft 283 kts 37°
2026-05-07 17:44 48.34261 1.69130 8930 ft 281 kts 37°
2026-05-07 17:44 48.35787 1.70958 8642 ft 279 kts 37°
2026-05-07 17:44 48.37305 1.72774 8361 ft 278 kts 37°
2026-05-07 17:44 48.38810 1.74576 8118 ft 275 kts 37°
2026-05-07 17:45 48.40304 1.76364 7853 ft 274 kts 37°
2026-05-07 17:45 48.41787 1.78140 7584 ft 272 kts 37°
2026-05-07 17:45 48.43262 1.79907 7317 ft 270 kts 37°
2026-05-07 17:45 48.44724 1.81658 7062 ft 268 kts 37°
2026-05-07 17:46 48.46183 1.83408 6740 ft 268 kts 37°
2026-05-07 17:46 48.47637 1.85153 6498 ft 266 kts 37°
2026-05-07 17:46 48.49072 1.86878 6260 ft 263 kts 37°
2026-05-07 17:46 48.50497 1.88590 6067 ft 262 kts 37°
2026-05-07 17:47 48.51924 1.90306 6030 ft 261 kts 37°
2026-05-07 17:47 48.53318 1.91985 6002 ft 251 kts 37°
2026-05-07 17:47 48.54646 1.93586 6003 ft 238 kts 37°
2026-05-07 17:47 48.55908 1.95108 5991 ft 227 kts 37°
2026-05-07 17:48 48.57124 1.96575 6011 ft 224 kts 37°
2026-05-07 17:48 48.58380 1.98088 5746 ft 237 kts 37°
2026-05-07 17:48 48.59662 1.99636 5480 ft 235 kts 38°
2026-05-07 17:48 48.60932 2.01171 5231 ft 232 kts 38°
2026-05-07 17:49 48.62183 2.02683 4924 ft 228 kts 38°
2026-05-07 17:49 48.63407 2.04164 4656 ft 223 kts 38°
2026-05-07 17:49 48.64602 2.05610 4398 ft 217 kts 38°
2026-05-07 17:49 48.65765 2.07020 4175 ft 210 kts 39°
2026-05-07 17:50 48.66136 2.07502 4087 ft 208 kts 45°
2026-05-07 17:50 48.66641 2.08583 3917 ft 204 kts 67°
2026-05-07 17:50 48.67139 2.10545 3691 ft 197 kts 68°
2026-05-07 17:50 48.67608 2.12453 3445 ft 191 kts 71°
2026-05-07 17:51 48.67987 2.14347 3187 ft 186 kts 73°
2026-05-07 17:51 48.68332 2.16216 2940 ft 181 kts 74°
2026-05-07 17:51 48.68655 2.17983 2726 ft 167 kts 74°
2026-05-07 17:51 48.68951 2.19601 2508 ft 152 kts 74°
2026-05-07 17:52 48.69229 2.21119 2314 ft 149 kts 74°
2026-05-07 17:52 48.69506 2.22631 2111 ft 149 kts 74°
2026-05-07 17:52 48.69782 2.24134 1917 ft 148 kts 73°
2026-05-07 17:52 48.70056 2.25625 1726 ft 147 kts 73°
2026-05-07 17:53 48.70329 2.27112 1524 ft 146 kts 73°
2026-05-07 17:53 48.70601 2.28591 1336 ft 147 kts 74°
2026-05-07 17:53 48.70876 2.30088 1175 ft 148 kts 74°
2026-05-07 17:53 48.71150 2.31563 955 ft 143 kts 74°
2026-05-07 17:54 48.71420 2.33031 694 ft 146 kts 74°
2026-05-07 17:54 48.71692 2.34510 490 ft 145 kts 74°
2026-05-07 17:54 48.71961 2.35971 298 ft 142 kts 74°
2026-05-07 17:54 48.72202 2.37275 295 ft 109 kts 75°
2026-05-07 17:55 48.72362 2.38160 301 ft 65 kts 74°
2026-05-07 17:55 48.72443 2.38600 300 ft 25 kts 75°
2026-05-07 17:55 48.72490 2.38841 299 ft 23 kts 73°
2026-05-07 17:55 48.72534 2.39071 296 ft 22 kts 74°
2026-05-07 17:56 48.72575 2.39295 299 ft 22 kts 74°
2026-05-07 17:56 48.72613 2.39500 296 ft 13 kts 74°
2026-05-07 17:56 48.72669 2.39587 299 ft 12 kts
2026-05-07 17:56 48.72752 2.39572 298 ft 12 kts 345°
2026-05-07 17:57 48.72821 2.39543 299 ft 0 kts 344°
2026-05-07 17:59 48.72828 2.39540 298 ft 2 kts 344°
2026-05-07 17:59 48.72847 2.39532 297 ft 4 kts 344°
2026-05-07 17:59 48.72878 2.39510 301 ft 6 kts 322°
2026-05-07 17:59 48.72891 2.39449 300 ft 7 kts 271°
2026-05-07 18:00 48.72890 2.39398 299 ft 8 kts 263°
2026-05-07 18:00 48.72881 2.39272 298 ft 9 kts 264°
2026-05-07 18:00 48.72878 2.39208 300 ft 9 kts 265°
2026-05-07 18:00 48.72870 2.39081 297 ft 9 kts 264°
2026-05-07 18:01 48.72865 2.39020 297 ft 9 kts 264°
2026-05-07 18:01 48.72859 2.38931 295 ft 8 kts 264°
2026-05-07 18:01 48.72854 2.38845 298 ft 8 kts 264°
2026-05-07 18:01 48.72848 2.38763 299 ft 8 kts 264°
2026-05-07 18:02 48.72839 2.38607 297 ft 7 kts 264°
2026-05-07 18:02 48.72834 2.38529 297 ft 8 kts 264°
2026-05-07 18:02 48.72826 2.38429 295 ft 11 kts 261°
2026-05-07 18:03 48.72806 2.38308 296 ft 13 kts 253°
2026-05-07 18:03 48.72780 2.38164 294 ft 15 kts 255°
2026-05-07 18:03 48.72753 2.38020 294 ft 14 kts 255°
2026-05-07 18:03 48.72727 2.37874 297 ft 15 kts 254°
2026-05-07 18:04 48.72696 2.37712 296 ft 16 kts 254°
2026-05-07 18:04 48.72667 2.37550 295 ft 16 kts 255°
2026-05-07 18:04 48.72644 2.37429 296 ft 0 kts 253°
2026-05-07 18:07 48.72643 2.37424 295 ft 7 kts 253°
2026-05-07 18:07 48.72613 2.37277 295 ft 15 kts 253°
2026-05-07 18:07 48.72583 2.37122 295 ft 15 kts 254°
2026-05-07 18:07 48.72554 2.36962 294 ft 15 kts 255°
2026-05-07 18:08 48.72526 2.36805 294 ft 15 kts 255°
2026-05-07 18:08 48.72505 2.36687 293 ft 10 kts 258°
2026-05-07 18:08 48.72541 2.36606 294 ft 13 kts 347°
2026-05-07 18:08 48.72595 2.36594 293 ft 7 kts 348°
2026-05-07 18:09 48.72641 2.36585 293 ft 7 kts
2026-05-07 18:09 48.72684 2.36594 294 ft 3 kts 10°